Weather in Wielen

Poland     52°53′10″N   16°10′12″E
temp.,
°C
wind,
m/s
gust,
m/s
humid.,
%
clouds,
%
prec.,
mm/h
press.,
hPa
HPBL,
m
26 july, mon
mon2623:00+21e3763100 0.0 1012197
02:00+20e257242 0.0 1011129
05:00+17e2586100 0.0 1011128
08:00+21ese3670100 0.0 1011348
11:00+24e225774 0.0 1011916
14:00+29sse124116 0.0 10101953
17:00+30w1336100 0.0 10102364
20:00+25nnw125961 0.0 100930
27 july, tue
tue2723:00+22nw116610 0.0 101011
02:00+19wsw3682100 0.1 1011132
05:00+19wsw2791100 0.0 1011187
08:00+20wsw2477100 0.0 1011194
11:00+26wsw45530 0.1 10121090
14:00+29wsw573741 0.1 10112845
17:00+29wsw673487 0.0 10112518
20:00+25w3752100 0.0 1011307
28 july, wed
wed2823:00+20wnw2370100 0.0 101352
02:00+18wnw11785 0.0 101311
05:00+17sw1182100 0.0 101213
08:00+21sw2464100 0.0 1012246
11:00+25sw355095 0.0 10121149
14:00+23wsw356396 0.4 1012761
17:00+24wsw576389 0.8 1011962
20:00+19sw5980100 1.3 1011493
29 july, thu
thu2923:00+17sw39930 0.0 1012275
02:00+15sw39965 0.0 1012268
05:00+15sw389820 0.0 1012236
08:00+19sw487746 0.0 1011467
11:00+23wsw610455 0.0 10111776
14:00+26wsw8123457 0.0 10102847
17:00+21wsw395594 0.0 1010884
20:00+21w375128 0.0 1009286
30 july, fri
fri3023:00+16w23596 0.0 101046
02:00+14wsw256516 0.0 101088
05:00+13sw247072 0.0 101084
08:00+18sw3656100 0.0 1010337
11:00+22wsw59415 0.0 10091717
14:00+24wsw693747 0.0 10081993
17:00+24w683799 0.0 10071924
20:00+20wnw25536 0.0 1007114